• In Russia
  • List of Countries
  • For 7 days
  • Water Temperature
  • Satellite Maps
  • Weather Map
  • Weather Widgets
  • user-avatar
    Login

    Hourly Weather Ganja

    Today, 23 April, Sunday

    Time Temperature Precipitation Wind Pressure Humidity
    00:00 +12°C° 0 mm 2 mps 728 mmHg 62%
    01:00 +10°C° 0 mm 2 mps 727 mmHg 67%
    02:00 +10°C° 0 mm 3 mps 727 mmHg 72%
    03:00 +8°C° 0 mm 4 mps 727 mmHg 80%
    04:00 +8°C° 0 mm 4 mps 727 mmHg 80%
    05:00 +9°C° 0 mm 3 mps 727 mmHg 80%
    06:00 +9°C° 0 mm 3 mps 727 mmHg 80%
    07:00 +11°C° 0 mm 3 mps 727 mmHg 73%
    08:00 +13°C° 0 mm 3 mps 726 mmHg 66%
    09:00 +16°C° 0 mm 3 mps 726 mmHg 59%
    10:00 +17°C° 0 mm 3 mps 725 mmHg 55%
    11:00 +19°C° 0 mm 3 mps 724 mmHg 51%
    12:00 +20°C° 0 mm 3 mps 723 mmHg 48%
    13:00 +21°C° 0 mm 3 mps 722 mmHg 47%
    14:00 +21°C° 0 mm 3 mps 721 mmHg 46%
    15:00 +22°C° 0 mm 3 mps 720 mmHg 45%
    16:00 +21°C° 0 mm 3 mps 720 mmHg 50%
    17:00 +20°C° 0 mm 2 mps 719 mmHg 56%
    18:00 +18°C° 0 mm 2 mps 719 mmHg 62%
    19:00 +17°C° 0 mm 2 mps 718 mmHg 65%
    20:00 +16°C° 0 mm 2 mps 718 mmHg 68%
    21:00 +15°C° 0 mm 2 mps 717 mmHg 71%
    22:00 +14°C° 0 mm 2 mps 717 mmHg 73%
    23:00 +14°C° 0 mm 2 mps 717 mmHg 76%

    Tomorrow, 24 April, Monday

    Time Temperature Precipitation Wind Pressure Humidity
    00:00 +12°C° 0 mm 3 mps 717 mmHg 79%
    01:00 +12°C° 0 mm 4 mps 718 mmHg 77%
    02:00 +12°C° 0 mm 5 mps 718 mmHg 74%
    03:00 +11°C° 0 mm 6 mps 718 mmHg 72%
    04:00 +11°C° 0 mm 6 mps 719 mmHg 69%
    05:00 +11°C° 0 mm 7 mps 719 mmHg 66%
    06:00 +11°C° 0 mm 7 mps 719 mmHg 64%
    07:00 +12°C° 0 mm 7 mps 720 mmHg 57%
    08:00 +15°C° 0 mm 8 mps 720 mmHg 51%
    09:00 +17°C° 0 mm 8 mps 720 mmHg 45%
    10:00 +17°C° 0 mm 8 mps 720 mmHg 43%
    11:00 +18°C° 0 mm 8 mps 720 mmHg 40%
    12:00 +20°C° 0 mm 8 mps 720 mmHg 38%
    13:00 +20°C° 0.2 mm 7 mps 720 mmHg 39%
    14:00 +20°C° 0.2 mm 7 mps 720 mmHg 40%
    15:00 +20°C° 0.2 mm 6 mps 720 mmHg 41%
    16:00 +17°C° 0.2 mm 6 mps 721 mmHg 45%
    17:00 +16°C° 0.2 mm 5 mps 722 mmHg 48%
    18:00 +15°C° 0.2 mm 4 mps 723 mmHg 52%
    19:00 +14°C° 0 mm 4 mps 723 mmHg 55%
    20:00 +13°C° 0 mm 4 mps 724 mmHg 58%
    21:00 +11°C° 0 mm 3 mps 725 mmHg 61%
    22:00 +11°C° 0 mm 3 mps 725 mmHg 62%
    23:00 +10°C° 0 mm 3 mps 725 mmHg 63%

    Day after tomorrow, 25 April, Tuesday

    Time Temperature Precipitation Wind Pressure Humidity
    00:00 +10°C° 0 mm 2 mps 725 mmHg 64%
    01:00 +9°C° 0 mm 2 mps 725 mmHg 66%
    02:00 +8°C° 0 mm 2 mps 726 mmHg 68%
    03:00 +8°C° 0 mm 2 mps 726 mmHg 70%
    04:00 +8°C° 0 mm 2 mps 726 mmHg 70%
    05:00 +8°C° 0 mm 2 mps 727 mmHg 69%
    06:00 +9°C° 0 mm 2 mps 727 mmHg 69%
    07:00 +10°C° 0 mm 3 mps 727 mmHg 62%
    08:00 +12°C° 0 mm 3 mps 728 mmHg 54%
    09:00 +14°C° 0 mm 4 mps 728 mmHg 47%
    10:00 +14°C° 0 mm 4 mps 728 mmHg 45%
    11:00 +16°C° 0 mm 3 mps 728 mmHg 43%
    12:00 +17°C° 0 mm 3 mps 727 mmHg 41%
    13:00 +17°C° 0 mm 3 mps 728 mmHg 41%
    14:00 +17°C° 0 mm 4 mps 728 mmHg 41%
    15:00 +17°C° 0 mm 4 mps 728 mmHg 41%
    16:00 +15°C° 0 mm 5 mps 729 mmHg 44%
    17:00 +13°C° 0 mm 5 mps 729 mmHg 47%
    18:00 +12°C° 0 mm 5 mps 730 mmHg 49%
    19:00 +10°C° 0 mm 5 mps 731 mmHg 50%
    20:00 +11°C° 0 mm 4 mps 732 mmHg 50%
    21:00 +10°C° 0 mm 3 mps 733 mmHg 50%
    22:00 +9°C° 0 mm 3 mps 733 mmHg 51%
    23:00 +9°C° 0 mm 2 mps 733 mmHg 52%

    26 April, Wednesday

    Time Temperature Precipitation Wind Pressure Humidity
    00:00 +8°C° 0 mm 2 mps 733 mmHg 53%
    01:00 +7°C° 0 mm 2 mps 734 mmHg 55%
    02:00 +7°C° 0 mm 2 mps 734 mmHg 57%
    03:00 +6°C° 0 mm 2 mps 734 mmHg 60%
    04:00 +6°C° 0 mm 2 mps 734 mmHg 59%
    05:00 +8°C° 0 mm 1 mps 735 mmHg 59%
    06:00 +8°C° 0 mm 1 mps 735 mmHg 59%
    07:00 +8°C° 0 mm 2 mps 735 mmHg 57%
    08:00 +9°C° 0 mm 3 mps 735 mmHg 54%
    09:00 +11°C° 0 mm 3 mps 735 mmHg 52%
    10:00 +12°C° 0 mm 4 mps 735 mmHg 52%
    11:00 +13°C° 0 mm 5 mps 734 mmHg 52%
    12:00 +13°C° 0 mm 5 mps 734 mmHg 53%
    13:00 +14°C° 0 mm 5 mps 734 mmHg 51%
    14:00 +14°C° 0 mm 5 mps 733 mmHg 50%
    15:00 +15°C° 0 mm 5 mps 733 mmHg 48%
    16:00 +14°C° 0 mm 5 mps 733 mmHg 51%
    17:00 +13°C° 0 mm 4 mps 733 mmHg 55%
    18:00 +13°C° 0 mm 4 mps 734 mmHg 58%
    19:00 +11°C° 0 mm 4 mps 734 mmHg 62%
    20:00 +10°C° 0 mm 3 mps 735 mmHg 66%
    21:00 +9°C° 0 mm 3 mps 735 mmHg 71%
    22:00 +8°C° 0 mm 2 mps 735 mmHg 73%
    23:00 +7°C° 0 mm 2 mps 735 mmHg 75%

    27 April, Thursday

    Time Temperature Precipitation Wind Pressure Humidity
    00:00 +6°C° 0 mm 2 mps 735 mmHg 78%
    01:00 +7°C° 0 mm 1 mps 734 mmHg 80%
    02:00 +6°C° 0 mm 1 mps 734 mmHg 83%
    03:00 +6°C° 0 mm 1 mps 734 mmHg 85%
    04:00 +6°C° 0 mm 0 mps 734 mmHg 83%
    05:00 +6°C° 0 mm 0 mps 734 mmHg 80%
    06:00 +7°C° 0 mm 0 mps 734 mmHg 77%
    07:00 +10°C° 0 mm 1 mps 734 mmHg 69%
    08:00 +12°C° 0 mm 2 mps 734 mmHg 61%
    09:00 +13°C° 0 mm 2 mps 733 mmHg 53%
    10:00 +14°C° 0 mm 3 mps 733 mmHg 50%
    11:00 +16°C° 0 mm 3 mps 732 mmHg 47%
    12:00 +17°C° 0 mm 4 mps 732 mmHg 44%
    13:00 +17°C° 0 mm 4 mps 731 mmHg 44%
    14:00 +18°C° 0 mm 4 mps 731 mmHg 44%
    15:00 +18°C° 0 mm 4 mps 730 mmHg 45%
    16:00 +17°C° 0 mm 4 mps 731 mmHg 49%
    17:00 +15°C° 0 mm 4 mps 731 mmHg 53%
    18:00 +16°C° 0 mm 3 mps 731 mmHg 57%
    19:00 +13°C° 0 mm 3 mps 732 mmHg 62%
    20:00 +11°C° 0 mm 3 mps 732 mmHg 66%
    21:00 +10°C° 0 mm 2 mps 733 mmHg 71%
    22:00 +9°C° 0 mm 2 mps 733 mmHg 72%
    23:00 +9°C° 0 mm 2 mps 733 mmHg 73%

    28 April, Friday

    Time Temperature Precipitation Wind Pressure Humidity
    00:00 +8°C° 0 mm 2 mps 732 mmHg 74%
    01:00 +9°C° 0 mm 1 mps 732 mmHg 75%
    02:00 +8°C° 0 mm 1 mps 732 mmHg 77%
    03:00 +7°C° 0 mm 1 mps 732 mmHg 78%
    04:00 +8°C° 0 mm 1 mps 732 mmHg 76%
    05:00 +8°C° 0 mm 0 mps 732 mmHg 75%
    06:00 +9°C° 0 mm 0 mps 732 mmHg 73%
    07:00 +12°C° 0 mm 1 mps 732 mmHg 65%
    08:00 +13°C° 0 mm 1 mps 732 mmHg 58%
    09:00 +15°C° 0 mm 2 mps 731 mmHg 51%
    10:00 +16°C° 0 mm 2 mps 731 mmHg 49%
    11:00 +17°C° 0 mm 2 mps 730 mmHg 47%
    12:00 +18°C° 0 mm 3 mps 730 mmHg 46%
    13:00 +19°C° 0 mm 3 mps 729 mmHg 46%
    14:00 +19°C° 0 mm 3 mps 729 mmHg 46%
    15:00 +20°C° 0 mm 4 mps 728 mmHg 46%
    16:00 +19°C° 0 mm 3 mps 729 mmHg 50%
    17:00 +18°C° 0 mm 3 mps 729 mmHg 54%
    18:00 +17°C° 0 mm 3 mps 729 mmHg 59%
    19:00 +16°C° 0 mm 3 mps 729 mmHg 63%
    20:00 +14°C° 0 mm 2 mps 729 mmHg 68%
    21:00 +12°C° 0 mm 2 mps 730 mmHg 72%
    22:00 +11°C° 0 mm 1 mps 729 mmHg 73%
    23:00 +11°C° 0 mm 1 mps 729 mmHg 74%
    Show more